• In Österreich
  • Länderverzeichnis
  • Für 7 Tage
  • Wassertemperatur
  • Satellitenkarten
  • Wetterkarte
  • News
  • Widgets
  • user-avatar
    Anmelden

    Stündliche Wetter Mutare

    Heute, 21 Juni, Donnerstag

    Zeit Temperatur Niederschläge Wind Luftdruck Luftfeuchtigkeit
    00:00 +12°C° 0 mm 1 m/S 657 mmHg 80%
    01:00 +12°C° 0 mm 1 m/S 657 mmHg 85%
    02:00 +12°C° 0 mm 1 m/S 657 mmHg 90%
    03:00 +12°C° 0 mm 1 m/S 657 mmHg 91%
    04:00 +11°C° 0 mm 1 m/S 657 mmHg 93%
    05:00 +11°C° 0 mm 1 m/S 657 mmHg 94%
    06:00 +13°C° 0 mm 1 m/S 658 mmHg 87%
    07:00 +13°C° 0 mm 0 m/S 659 mmHg 81%
    08:00 +15°C° 0 mm 0 m/S 660 mmHg 69%
    09:00 +19°C° 0 mm 1 m/S 660 mmHg 59%
    10:00 +21°C° 0 mm 1 m/S 661 mmHg 48%
    11:00 +24°C° 0 mm 1 m/S 661 mmHg 38%
    12:00 +24°C° 0 mm 1 m/S 661 mmHg 36%
    13:00 +24°C° 0 mm 2 m/S 660 mmHg 34%
    14:00 +24°C° 0 mm 2 m/S 660 mmHg 33%
    15:00 +23°C° 0 mm 2 m/S 659 mmHg 37%
    16:00 +22°C° 0 mm 1 m/S 659 mmHg 41%
    17:00 +20°C° 0 mm 1 m/S 658 mmHg 45%
    18:00 +19°C° 0 mm 1 m/S 658 mmHg 53%
    19:00 +16°C° 0 mm 1 m/S 658 mmHg 60%
    20:00 +14°C° 0 mm 1 m/S 658 mmHg 68%
    21:00 +13°C° 0 mm 1 m/S 658 mmHg 72%
    22:00 +13°C° 0 mm 1 m/S 658 mmHg 77%
    23:00 +12°C° 0 mm 1 m/S 657 mmHg 81%

    Morgen, 22 Juni, Freitag

    Zeit Temperatur Niederschläge Wind Luftdruck Luftfeuchtigkeit
    00:00 +12°C° 0 mm 1 m/S 657 mmHg 84%
    01:00 +12°C° 0 mm 1 m/S 657 mmHg 88%
    02:00 +11°C° 0 mm 1 m/S 657 mmHg 91%
    03:00 +11°C° 0 mm 1 m/S 657 mmHg 92%
    04:00 +11°C° 0 mm 1 m/S 657 mmHg 93%
    05:00 +11°C° 0 mm 1 m/S 657 mmHg 94%
    06:00 +11°C° 0 mm 0 m/S 657 mmHg 87%
    07:00 +13°C° 0 mm 0 m/S 658 mmHg 81%
    08:00 +14°C° 0 mm 0 m/S 659 mmHg 74%
    09:00 +19°C° 0 mm 1 m/S 659 mmHg 63%
    10:00 +21°C° 0 mm 1 m/S 660 mmHg 51%
    11:00 +23°C° 0 mm 1 m/S 661 mmHg 40%
    12:00 +24°C° 0 mm 1 m/S 660 mmHg 38%
    13:00 +24°C° 0 mm 2 m/S 659 mmHg 36%
    14:00 +25°C° 0 mm 2 m/S 659 mmHg 33%
    15:00 +23°C° 0 mm 2 m/S 658 mmHg 37%
    16:00 +21°C° 0 mm 2 m/S 658 mmHg 41%
    17:00 +20°C° 0 mm 1 m/S 657 mmHg 45%
    18:00 +18°C° 0 mm 1 m/S 657 mmHg 52%
    19:00 +16°C° 0 mm 1 m/S 657 mmHg 60%
    20:00 +14°C° 0 mm 1 m/S 657 mmHg 67%
    21:00 +13°C° 0 mm 1 m/S 657 mmHg 72%
    22:00 +12°C° 0 mm 1 m/S 657 mmHg 77%
    23:00 +12°C° 0 mm 1 m/S 657 mmHg 82%

    übermorgen, 23 Juni, Samstag

    Zeit Temperatur Niederschläge Wind Luftdruck Luftfeuchtigkeit
    00:00 +12°C° 0 mm 1 m/S 657 mmHg 85%
    01:00 +11°C° 0 mm 1 m/S 657 mmHg 88%
    02:00 +11°C° 0 mm 1 m/S 656 mmHg 91%
    03:00 +11°C° 0 mm 1 m/S 656 mmHg 92%
    04:00 +11°C° 0 mm 1 m/S 656 mmHg 93%
    05:00 +10°C° 0 mm 1 m/S 656 mmHg 94%
    06:00 +12°C° 0 mm 1 m/S 657 mmHg 88%
    07:00 +13°C° 0 mm 1 m/S 658 mmHg 81%
    08:00 +14°C° 0 mm 0 m/S 658 mmHg 75%
    09:00 +18°C° 0 mm 1 m/S 659 mmHg 61%
    10:00 +20°C° 0 mm 1 m/S 659 mmHg 48%
    11:00 +23°C° 0 mm 2 m/S 660 mmHg 35%
    12:00 +23°C° 0 mm 2 m/S 659 mmHg 32%
    13:00 +24°C° 0 mm 2 m/S 659 mmHg 30%
    14:00 +24°C° 0 mm 2 m/S 658 mmHg 28%
    15:00 +23°C° 0 mm 2 m/S 657 mmHg 32%
    16:00 +20°C° 0 mm 2 m/S 657 mmHg 37%
    17:00 +19°C° 0 mm 2 m/S 656 mmHg 42%
    18:00 +17°C° 0 mm 2 m/S 656 mmHg 53%
    19:00 +15°C° 0 mm 1 m/S 656 mmHg 64%
    20:00 +13°C° 0 mm 1 m/S 656 mmHg 74%
    21:00 +13°C° 0 mm 1 m/S 656 mmHg 80%
    22:00 +12°C° 0 mm 1 m/S 656 mmHg 85%
    23:00 +12°C° 0 mm 1 m/S 656 mmHg 90%

    24 Juni, Sonntag

    Zeit Temperatur Niederschläge Wind Luftdruck Luftfeuchtigkeit
    00:00 +12°C° 0 mm 1 m/S 656 mmHg 91%
    01:00 +11°C° 0 mm 1 m/S 655 mmHg 92%
    02:00 +10°C° 0 mm 0 m/S 655 mmHg 94%
    03:00 +10°C° 0 mm 0 m/S 655 mmHg 94%
    04:00 +10°C° 0 mm 0 m/S 655 mmHg 94%
    05:00 +10°C° 0 mm 0 m/S 655 mmHg 94%
    06:00 +11°C° 0 mm 0 m/S 656 mmHg 88%
    07:00 +12°C° 0 mm 0 m/S 657 mmHg 81%
    08:00 +14°C° 0 mm 0 m/S 658 mmHg 74%
    09:00 +18°C° 0 mm 1 m/S 658 mmHg 63%
    10:00 +20°C° 0 mm 1 m/S 659 mmHg 52%
    11:00 +23°C° 0 mm 1 m/S 659 mmHg 41%
    12:00 +23°C° 0 mm 1 m/S 658 mmHg 39%
    13:00 +23°C° 0 mm 2 m/S 658 mmHg 37%
    14:00 +24°C° 0 mm 2 m/S 657 mmHg 35%
    15:00 +21°C° 0 mm 2 m/S 657 mmHg 39%
    16:00 +20°C° 0 mm 2 m/S 656 mmHg 43%
    17:00 +19°C° 0 mm 2 m/S 656 mmHg 47%
    18:00 +18°C° 0 mm 1 m/S 656 mmHg 55%
    19:00 +15°C° 0 mm 1 m/S 656 mmHg 62%
    20:00 +13°C° 0 mm 1 m/S 656 mmHg 69%
    21:00 +13°C° 0 mm 1 m/S 656 mmHg 73%
    22:00 +12°C° 0 mm 1 m/S 656 mmHg 78%
    23:00 +11°C° 0 mm 1 m/S 656 mmHg 82%

    25 Juni, Montag

    Zeit Temperatur Niederschläge Wind Luftdruck Luftfeuchtigkeit
    00:00 +11°C° 0 mm 1 m/S 656 mmHg 85%
    01:00 +11°C° 0 mm 1 m/S 656 mmHg 88%
    02:00 +10°C° 0 mm 1 m/S 655 mmHg 91%
    03:00 +10°C° 0 mm 1 m/S 655 mmHg 91%
    04:00 +10°C° 0 mm 1 m/S 655 mmHg 91%
    05:00 +10°C° 0 mm 1 m/S 655 mmHg 92%
    06:00 +11°C° 0 mm 1 m/S 656 mmHg 83%
    07:00 +12°C° 0 mm 0 m/S 657 mmHg 75%
    08:00 +13°C° 0 mm 0 m/S 658 mmHg 66%
    09:00 +18°C° 0 mm 1 m/S 658 mmHg 55%
    10:00 +20°C° 0 mm 1 m/S 659 mmHg 43%
    11:00 +23°C° 0 mm 1 m/S 659 mmHg 32%
    12:00 +23°C° 0 mm 2 m/S 659 mmHg 30%
    13:00 +24°C° 0 mm 2 m/S 658 mmHg 29%
    14:00 +24°C° 0 mm 2 m/S 657 mmHg 27%
    15:00 +23°C° 0 mm 2 m/S 657 mmHg 31%
    16:00 +20°C° 0 mm 2 m/S 657 mmHg 35%
    17:00 +19°C° 0 mm 2 m/S 656 mmHg 40%
    18:00 +18°C° 0 mm 1 m/S 656 mmHg 48%
    19:00 +15°C° 0 mm 1 m/S 656 mmHg 57%
    20:00 +13°C° 0 mm 1 m/S 656 mmHg 66%
    21:00 +12°C° 0 mm 1 m/S 656 mmHg 71%
    22:00 +12°C° 0 mm 1 m/S 656 mmHg 77%
    23:00 +11°C° 0 mm 1 m/S 656 mmHg 82%

    26 Juni, Dienstag

    Zeit Temperatur Niederschläge Wind Luftdruck Luftfeuchtigkeit
    00:00 +11°C° 0 mm 1 m/S 656 mmHg 85%
    01:00 +11°C° 0 mm 1 m/S 656 mmHg 88%
    02:00 +10°C° 0 mm 1 m/S 656 mmHg 91%
    03:00 +10°C° 0 mm 1 m/S 656 mmHg 92%
    04:00 +10°C° 0 mm 1 m/S 656 mmHg 93%
    05:00 +10°C° 0 mm 1 m/S 656 mmHg 94%
    06:00 +11°C° 0 mm 1 m/S 657 mmHg 88%
    07:00 +13°C° 0 mm 1 m/S 658 mmHg 82%
    08:00 +13°C° 0 mm 0 m/S 659 mmHg 75%
    09:00 +18°C° 0 mm 1 m/S 659 mmHg 63%
    10:00 +20°C° 0 mm 1 m/S 659 mmHg 50%
    11:00 +21°C° 0 mm 2 m/S 660 mmHg 37%
    12:00 +23°C° 0 mm 2 m/S 659 mmHg 34%
    13:00 +23°C° 0 mm 2 m/S 659 mmHg 31%
    14:00 +24°C° 0 mm 2 m/S 658 mmHg 28%
    15:00 +23°C° 0 mm 2 m/S 658 mmHg 31%
    16:00 +20°C° 0 mm 2 m/S 657 mmHg 35%
    17:00 +19°C° 0 mm 2 m/S 657 mmHg 39%
    18:00 +17°C° 0 mm 2 m/S 657 mmHg 49%
    19:00 +15°C° 0 mm 1 m/S 657 mmHg 59%
    20:00 +13°C° 0 mm 1 m/S 657 mmHg 69%
    21:00 +12°C° 0 mm 1 m/S 657 mmHg 75%
    22:00 +12°C° 0 mm 1 m/S 657 mmHg 81%
    23:00 +12°C° 0 mm 1 m/S 657 mmHg 87%
    Mehr zeigen